QPF
0.00 0.00 0.00 0.00 0.00 0.00 0.00 0.00 0.00 0.00 0.00 0.00 0.00 0.00 0.00 0.00 0.00 0.00 0.00 0.00 0.00 0.00 0.00 0.00 0.00 0.00 0.00 0.01 0.04 0.06 0.05 0.04 0.04 0.09 0.12 0.11 0.07 0.09 0.04 0.01 0.00 0.01 0.05 0.08 0.07 0.06 0.07 0.04 0.02
0.00 0.00 0.00 0.00 0.00 0.00 0.00 0.00 0.00 0.00 0.00 0.00 0.00 0.00 0.00 0.00 0.00 0.00 0.00 0.00 0.00 0.00 0.00 0.00 0.00 0.00 0.00 0.00 0.03 0.07 0.06 0.05 0.03 0.06 0.10 0.18 0.13 0.07 0.04 0.03 0.02 0.02 0.04 0.07 0.07 0.07 0.06 0.05 0.02
0.00 0.00 0.00 0.00 0.00 0.00 0.00 0.00 0.00 0.00 0.00 0.00 0.00 0.00 0.00 0.00 0.00 0.00 0.00 0.00 0.00 0.00 0.00 0.00 0.00 0.00 0.00 0.00 0.01 0.06 0.08 0.07 0.03 0.04 0.05 0.13 0.21 0.11 0.06 0.04 0.02 0.03 0.07 0.05 0.04 0.03 0.04 0.01 0.02
0.00 0.00 0.00 0.00 0.00 0.00 0.00 0.00 0.00 0.00 0.00 0.00 0.00 0.00 0.00 0.00 0.00 0.00 0.00 0.00 0.00 0.00 0.00 0.00 0.00 0.00 0.00 0.00 0.00 0.03 0.09 0.11 0.04 0.03 0.02 0.07 0.18 0.19 0.10 0.06 0.02 0.03 0.09 0.10 0.04 0.04 0.03 0.01 0.01
0.00 0.00 0.00 0.00 0.00 0.00 0.00 0.00 0.00 0.00 0.00 0.00 0.00 0.00 0.00 0.00 0.00 0.00 0.00 0.00 0.00 0.00 0.00 0.00 0.00 0.00 0.00 0.00 0.00 0.00 0.04 0.10 0.07 0.03 0.02 0.03 0.12 0.24 0.17 0.06 0.02 0.01 0.05 0.06 0.03 0.04 0.02 0.01 0.01
0.00 0.00 0.00 0.00 0.00 0.00 0.00 0.00 0.00 0.00 0.00 0.00 0.00 0.00 0.00 0.00 0.00 0.00 0.00 0.00 0.00 0.00 0.00 0.00 0.00 0.00 0.00 0.00 0.00 0.00 0.01 0.05 0.10 0.06 0.04 0.03 0.07 0.22 0.25 0.07 0.01 0.01 0.02 0.02 0.03 0.04 0.03 0.02 0.01
0.00 0.00 0.00 0.00 0.00 0.00 0.00 0.00 0.00 0.00 0.00 0.00 0.00 0.00 0.00 0.00 0.00 0.00 0.00 0.00 0.00 0.00 0.00 0.00 0.00 0.00 0.00 0.00 0.00 0.00 0.00 0.01 0.07 0.11 0.06 0.05 0.09 0.20 0.31 0.19 0.04 0.01 0.01 0.01 0.02 0.02 0.03 0.03 0.00
0.00 0.00 0.00 0.00 0.00 0.00 0.00 0.00 0.00 0.00 0.00 0.00 0.00 0.00 0.00 0.00 0.00 0.00 0.00 0.00 0.00 0.00 0.00 0.00 0.00 0.00 0.00 0.00 0.00 0.00 0.00 0.00 0.02 0.10 0.12 0.07 0.12 0.22 0.36 0.37 0.19 0.04 0.03 0.02 0.00 0.02 0.02 0.02 0.00
0.00 0.00 0.00 0.00 0.00 0.00 0.00 0.00 0.00 0.00 0.00 0.00 0.00 0.00 0.00 0.00 0.00 0.00 0.00 0.00 0.00 0.00 0.00 0.00 0.00 0.00 0.00 0.00 0.00 0.00 0.00 0.00 0.00 0.03 0.12 0.13 0.06 0.14 0.30 0.38 0.31 0.25 0.14 0.02 0.01 0.02 0.00 0.00 0.00
0.00 0.00 0.00 0.00 0.00 0.00 0.00 0.00 0.00 0.00 0.00 0.00 0.00 0.00 0.00 0.00 0.00 0.00 0.00 0.00 0.00 0.00 0.00 0.00 0.00 0.00 0.00 0.00 0.00 0.00 0.00 0.00 0.00 0.00 0.05 0.14 0.11 0.13 0.19 0.28 0.25 0.31 0.21 0.20 0.08 0.01 0.03 0.02 0.00
0.00 0.00 0.00 0.00 0.00 0.00 0.00 0.00 0.00 0.00 0.00 0.00 0.00 0.00 0.00 0.00 0.00 0.00 0.00 0.00 0.00 0.00 0.00 0.00 0.00 0.00 0.00 0.00 0.00 0.00 0.00 0.00 0.00 0.00 0.01 0.08 0.25 0.21 0.14 0.17 0.21 0.31 0.32 0.37 0.25 0.08 0.08 0.00 0.00
0.00 0.00 0.00 0.00 0.00 0.00 0.00 0.00 0.00 0.00 0.00 0.00 0.00 0.00 0.00 0.00 0.00 0.00 0.00 0.00 0.00 0.00 0.00 0.00 0.00 0.00 0.00 0.00 0.00 0.00 0.00 0.00 0.00 0.00 0.00 0.02 0.14 0.51 0.37 0.22 0.20 0.20 0.30 0.34 0.16 0.07 0.02 0.00 0.00
0.00 0.00 0.00 0.00 0.00 0.00 0.00 0.00 0.00 0.00 0.00 0.00 0.00 0.00 0.00 0.00 0.00 0.00 0.00 0.00 0.00 0.00 0.00 0.00 0.00 0.00 0.00 0.00 0.00 0.00 0.00 0.00 0.00 0.00 0.00 0.00 0.03 0.45 0.97 0.54 0.22 0.14 0.27 0.28 0.12 0.04 0.01 0.00 0.00
0.00 0.00 0.00 0.00 0.00 0.00 0.00 0.00 0.00 0.00 0.00 0.00 0.00 0.00 0.00 0.00 0.00 0.00 0.00 0.00 0.00 0.00 0.00 0.00 0.00 0.00 0.00 0.00 0.00 0.00 0.00 0.00 0.00 0.00 0.00 0.00 0.01 0.17 0.80 1.04 0.40 0.15 0.20 0.19 0.11 0.02 0.01 0.00 0.00
0.00 0.00 0.00 0.00 0.00 0.00 0.00 0.00 0.00 0.00 0.00 0.00 0.00 0.00 0.00 0.00 0.00 0.00 0.00 0.00 0.00 0.00 0.00 0.00 0.00 0.00 0.00 0.00 0.00 0.00 0.00 0.00 0.00 0.00 0.00 0.00 0.00 0.05 0.33 0.98 1.00 0.32 0.28 0.19 0.11 0.06 0.04 0.02 0.01
0.00 0.00 0.00 0.00 0.00 0.00 0.00 0.00 0.00 0.00 0.00 0.00 0.00 0.00 0.00 0.00 0.00 0.00 0.00 0.00 0.00 0.00 0.00 0.00 0.00 0.00 0.00 0.00 0.00 0.00 0.00 0.00 0.00 0.00 0.00 0.00 0.00 0.00 0.14 0.60 1.03 0.74 0.48 0.28 0.13 0.04 0.03 0.03 0.00
0.00 0.00 0.00 0.00 0.00 0.00 0.00 0.00 0.00 0.00 0.00 0.00 0.00 0.00 0.00 0.00 0.00 0.00 0.00 0.00 0.00 0.00 0.00 0.00 0.00 0.00 0.00 0.00 0.00 0.00 0.00 0.00 0.00 0.00 0.00 0.00 0.00 0.00 0.09 0.33 0.79 0.91 0.81 0.36 0.15 0.05 0.02 0.01 0.00
0.00 0.00 0.00 0.00 0.00 0.00 0.00 0.00 0.00 0.00 0.00 0.00 0.00 0.00 0.00 0.00 0.00 0.00 0.00 0.00 0.00 0.00 0.00 0.00 0.00 0.00 0.00 0.00 0.00 0.00 0.00 0.00 0.00 0.00 0.00 0.00 0.00 0.00 0.05 0.26 0.55 0.77 0.93 0.66 0.24 0.09 0.02 0.01 0.00
0.00 0.00 0.00 0.00 0.00 0.00 0.00 0.00 0.00 0.00 0.00 0.00 0.00 0.00 0.00 0.00 0.00 0.00 0.00 0.00 0.00 0.00 0.00 0.00 0.00 0.00 0.00 0.00 0.00 0.00 0.00 0.00 0.00 0.00 0.00 0.00 0.00 0.00 0.03 0.19 0.40 0.56 0.76 0.78 0.44 0.26 0.08 0.04 0.01
0.00 0.00 0.00 0.00 0.00 0.00 0.00 0.00 0.00 0.00 0.00 0.00 0.00 0.00 0.00 0.00 0.00 0.00 0.00 0.00 0.00 0.00 0.00 0.00 0.00 0.00 0.00 0.00 0.00 0.00 0.00 0.00 0.00 0.00 0.00 0.00 0.00 0.00 0.01 0.12 0.32 0.49 0.55 0.64 0.41 0.39 0.25 0.05 0.00
0.00 0.00 0.00 0.00 0.00 0.00 0.00 0.00 0.00 0.00 0.00 0.00 0.00 0.00 0.00 0.00 0.00 0.00 0.00 0.00 0.00 0.00 0.00 0.00 0.00 0.00 0.00 0.00 0.00 0.00 0.00 0.00 0.00 0.00 0.00 0.00 0.00 0.00 0.00 0.05 0.20 0.43 0.51 0.84 0.72 0.26 0.20 0.10 0.03
0.00 0.00 0.00 0.00 0.00 0.00 0.00 0.00 0.00 0.00 0.00 0.00 0.00 0.00 0.00 0.00 0.00 0.00 0.00 0.00 0.00 0.00 0.00 0.00 0.00 0.00 0.00 0.00 0.00 0.00 0.00 0.00 0.00 0.00 0.00 0.00 0.00 0.00 0.00 0.01 0.11 0.30 0.45 0.60 0.99 0.55 0.17 0.09 0.04
0.00 0.00 0.00 0.00 0.00 0.00 0.00 0.00 0.00 0.00 0.00 0.00 0.00 0.00 0.00 0.00 0.00 0.00 0.00 0.00 0.00 0.00 0.00 0.00 0.00 0.00 0.00 0.00 0.00 0.00 0.00 0.00 0.00 0.00 0.00 0.00 0.00 0.00 0.00 0.00 0.06 0.25 0.41 0.47 0.50 0.62 0.37 0.19 0.02
0.00 0.00 0.00 0.00 0.00 0.00 0.00 0.00 0.00 0.00 0.00 0.00 0.00 0.00 0.00 0.00 0.00 0.00 0.00 0.00 0.00 0.00 0.00 0.00 0.00 0.00 0.00 0.00 0.00 0.00 0.00 0.00 0.00 0.00 0.00 0.00 0.00 0.00 0.00 0.00 0.01 0.16 0.37 0.43 0.38 0.29 0.32 0.28 0.06
0.00 0.00 0.00 0.00 0.00 0.00 0.00 0.00 0.00 0.00 0.00 0.00 0.00 0.00 0.00 0.00 0.00 0.00 0.00 0.00 0.00 0.00 0.00 0.00 0.00 0.00 0.00 0.00 0.00 0.00 0.00 0.00 0.00 0.00 0.00 0.00 0.00 0.00 0.00 0.00 0.00 0.07 0.31 0.39 0.30 0.28 0.35 0.18 0.08
0.00 0.00 0.00 0.00 0.00 0.00 0.00 0.00 0.00 0.00 0.00 0.00 0.00 0.00 0.00 0.00 0.00 0.00 0.00 0.00 0.00 0.00 0.00 0.00 0.00 0.00 0.00 0.00 0.00 0.00 0.00 0.00 0.00 0.00 0.00 0.00 0.00 0.00 0.00 0.00 0.00 0.02 0.16 0.28 0.23 0.26 0.45 0.32 0.08
0.00 0.00 0.00 0.00 0.00 0.00 0.00 0.00 0.00 0.00 0.00 0.00 0.00 0.00 0.00 0.00 0.00 0.00 0.00 0.00 0.00 0.00 0.00 0.00 0.00 0.00 0.00 0.00 0.00 0.00 0.00 0.00 0.00 0.00 0.00 0.00 0.00 0.00 0.00 0.00 0.00 0.01 0.09 0.20 0.17 0.24 0.38 0.39 0.19
0.00 0.00 0.00 0.00 0.00 0.00 0.00 0.00 0.00 0.00 0.00 0.00 0.00 0.00 0.00 0.00 0.00 0.00 0.00 0.00 0.00 0.00 0.00 0.00 0.00 0.00 0.00 0.00 0.00 0.00 0.00 0.00 0.00 0.00 0.00 0.00 0.00 0.00 0.00 0.00 0.00 0.00 0.05 0.15 0.17 0.20 0.37 0.38 0.26
0.00 0.00 0.00 0.00 0.00 0.00 0.00 0.00 0.00 0.00 0.00 0.00 0.00 0.00 0.00 0.00 0.00 0.00 0.00 0.00 0.00 0.00 0.00 0.00 0.00 0.00 0.00 0.00 0.00 0.00 0.00 0.00 0.00 0.00 0.00 0.00 0.00 0.00 0.00 0.00 0.00 0.00 0.01 0.08 0.16 0.19 0.34 0.44 0.24
0.00 0.00 0.00 0.00 0.00 0.00 0.00 0.00 0.00 0.00 0.00 0.00 0.00 0.00 0.00 0.00 0.00 0.00 0.00 0.00 0.00 0.00 0.00 0.00 0.00 0.00 0.00 0.00 0.00 0.00 0.00 0.00 0.00 0.00 0.00 0.00 0.00 0.00 0.00 0.00 0.00 0.00 0.00 0.03 0.12 0.17 0.30 0.44 0.26
MSLP
1013.86 1013.64 1013.66 1014.12 1016.05 1017.33 1018.56 1019.46 1019.75 1020.04 1020.17 1020.47 1020.43 1020.53 1021.44 1022.22 1022.94 1024.40 1024.61 1024.62 1024.42 1023.96 1023.12 1022.22 1020.85 1020.14 1019.57 1018.93 1018.50 1017.82 1017.22 1016.48 1015.93 1015.50 1014.81 1014.78 1014.59 1014.60 1014.60 1014.76 1014.99 1015.32 1015.62 1015.83 1016.01 1016.26 1016.50 1016.64 1016.95
1014.03 1013.68 1014.12 1015.63 1017.44 1019.20 1019.97 1020.33 1020.84 1021.24 1021.48 1021.32 1021.66 1022.26 1022.73 1023.95 1024.11 1024.46 1024.98 1024.95 1024.62 1024.32 1023.64 1022.59 1021.40 1020.64 1020.15 1019.67 1018.81 1018.52 1017.76 1017.11 1016.51 1015.99 1015.47 1015.02 1014.73 1014.65 1014.70 1014.76 1014.94 1015.17 1015.54 1016.00 1016.24 1016.52 1016.69 1016.85 1017.21
1014.04 1014.11 1015.43 1017.27 1019.13 1020.25 1020.92 1021.56 1022.02 1022.12 1022.15 1022.03 1022.69 1023.27 1024.20 1025.24 1025.32 1025.63 1025.76 1025.36 1024.88 1024.45 1024.02 1022.90 1021.86 1021.28 1020.70 1020.08 1019.77 1018.94 1018.31 1017.65 1017.07 1016.56 1016.06 1015.41 1014.92 1014.57 1014.71 1014.86 1014.96 1015.22 1015.53 1015.95 1016.38 1016.65 1016.88 1017.14 1017.46
1014.60 1015.27 1017.33 1018.15 1020.00 1021.30 1022.05 1022.59 1022.91 1022.73 1022.54 1022.68 1023.23 1024.21 1025.05 1026.02 1026.01 1026.32 1026.06 1025.59 1024.99 1024.63 1024.25 1023.41 1022.31 1021.78 1021.21 1020.65 1019.87 1019.28 1018.70 1018.18 1017.43 1016.87 1016.38 1015.86 1015.47 1014.77 1014.62 1014.78 1015.08 1015.19 1015.53 1015.84 1016.46 1016.83 1017.00 1017.33 1017.71
1015.60 1016.89 1018.55 1019.92 1021.28 1022.27 1022.96 1023.64 1023.86 1023.85 1023.66 1023.73 1023.74 1024.90 1025.64 1026.33 1026.47 1026.52 1026.09 1025.71 1025.46 1024.93 1024.31 1023.94 1022.94 1022.36 1021.76 1021.09 1020.41 1019.93 1019.49 1018.69 1017.98 1017.28 1016.78 1016.35 1015.92 1015.53 1014.60 1014.68 1014.99 1015.27 1015.54 1015.89 1016.42 1016.96 1017.22 1017.55 1017.91
1016.95 1018.27 1019.97 1021.26 1022.35 1023.14 1023.90 1024.41 1024.11 1024.32 1024.38 1024.22 1024.45 1025.17 1026.46 1026.65 1026.24 1026.39 1026.16 1025.94 1025.57 1025.32 1024.63 1024.06 1023.49 1022.84 1022.16 1021.50 1020.75 1020.20 1019.64 1019.58 1018.51 1017.92 1017.27 1016.81 1016.36 1015.82 1015.15 1014.47 1014.82 1015.16 1015.48 1015.89 1016.29 1016.90 1017.45 1017.79 1018.16
1018.51 1019.88 1021.51 1022.39 1023.10 1023.72 1024.73 1024.82 1024.95 1024.98 1024.78 1024.81 1024.89 1025.50 1026.53 1026.73 1026.60 1026.38 1026.26 1026.02 1025.58 1025.30 1024.83 1024.56 1023.85 1023.28 1022.71 1022.12 1021.41 1020.92 1020.34 1019.12 1018.98 1018.85 1017.91 1017.45 1016.81 1016.18 1015.82 1014.86 1014.60 1014.87 1015.29 1015.73 1016.27 1016.74 1017.49 1018.00 1018.45
1019.75 1020.74 1022.46 1023.52 1024.14 1024.83 1025.22 1024.95 1025.05 1025.08 1024.90 1024.88 1025.10 1025.73 1026.03 1026.25 1026.54 1026.47 1026.32 1026.02 1025.59 1025.21 1024.90 1024.50 1024.13 1023.72 1023.07 1022.56 1021.98 1021.33 1021.01 1020.49 1020.11 1019.21 1018.71 1017.88 1017.39 1016.75 1016.28 1015.64 1014.61 1014.80 1015.13 1015.59 1016.03 1016.69 1017.25 1018.02 1018.70
1020.52 1021.69 1023.99 1024.67 1024.73 1024.87 1025.26 1025.34 1024.93 1025.07 1025.19 1025.08 1025.47 1025.59 1025.87 1026.18 1026.42 1026.56 1026.48 1026.13 1025.81 1025.47 1025.21 1024.79 1024.33 1023.86 1023.50 1022.80 1022.44 1021.92 1021.37 1020.97 1020.31 1019.45 1019.01 1018.48 1017.82 1017.25 1016.79 1016.12 1015.39 1014.65 1014.98 1015.42 1015.89 1016.56 1017.24 1017.86 1018.72
1022.07 1023.60 1024.99 1024.95 1025.08 1025.51 1025.76 1025.58 1025.34 1025.54 1025.35 1025.38 1025.60 1025.88 1026.09 1026.28 1026.58 1026.56 1026.63 1026.48 1026.22 1025.92 1025.51 1025.21 1024.69 1024.11 1023.72 1023.00 1022.90 1022.35 1021.89 1021.52 1020.94 1020.46 1019.89 1019.11 1018.25 1018.02 1017.22 1016.56 1015.68 1014.62 1014.78 1015.35 1015.91 1016.40 1017.19 1017.95 1018.77
1023.70 1024.98 1025.33 1025.40 1025.45 1025.77 1026.02 1025.93 1025.83 1025.74 1025.76 1025.32 1025.57 1025.84 1026.22 1026.51 1026.59 1026.81 1026.55 1026.30 1026.15 1025.94 1025.61 1025.41 1025.03 1024.40 1023.89 1023.43 1023.11 1022.84 1022.27 1021.82 1021.42 1020.74 1020.13 1019.53 1019.08 1018.56 1017.51 1016.88 1016.22 1014.78 1014.72 1015.18 1015.92 1016.47 1017.17 1017.84 1018.59
1024.71 1025.60 1025.73 1025.91 1026.02 1026.19 1026.18 1026.12 1026.13 1025.90 1025.52 1025.52 1025.48 1025.69 1026.16 1026.40 1026.65 1026.62 1026.38 1026.11 1026.03 1025.97 1025.82 1025.46 1025.11 1024.63 1023.98 1023.60 1023.34 1023.05 1022.65 1022.05 1021.63 1021.09 1020.60 1019.86 1019.36 1018.20 1017.08 1017.11 1016.96 1014.96 1014.47 1014.80 1015.47 1016.32 1016.88 1017.77 1018.43
1025.52 1026.04 1025.97 1026.19 1026.40 1026.39 1026.37 1026.36 1026.34 1025.69 1025.33 1025.53 1025.59 1025.74 1026.11 1026.34 1026.41 1026.34 1026.16 1025.99 1025.94 1025.90 1025.77 1025.48 1025.11 1024.62 1024.07 1023.64 1023.32 1023.07 1022.70 1022.33 1021.80 1021.21 1020.83 1020.52 1019.66 1018.82 1017.96 1017.29 1016.31 1015.62 1014.24 1014.64 1015.16 1015.91 1016.80 1017.35 1018.25
1026.27 1026.16 1026.49 1026.62 1026.78 1026.82 1026.81 1026.55 1026.77 1025.75 1025.61 1025.81 1026.12 1026.17 1026.26 1026.26 1026.22 1026.07 1026.02 1025.77 1025.80 1025.83 1025.68 1025.33 1024.90 1024.53 1024.31 1023.93 1023.56 1023.09 1022.73 1022.23 1021.74 1021.28 1020.96 1020.76 1020.25 1019.26 1017.71 1017.60 1016.35 1015.48 1013.98 1014.35 1015.00 1015.47 1016.48 1017.44 1018.02
1026.66 1026.87 1026.99 1027.39 1027.50 1027.40 1027.11 1026.47 1026.42 1026.02 1025.86 1025.88 1026.09 1026.30 1026.30 1026.01 1025.66 1025.72 1025.53 1025.69 1025.76 1025.66 1025.47 1025.03 1024.61 1024.33 1024.19 1023.77 1023.56 1023.07 1022.60 1022.19 1021.71 1021.22 1020.83 1020.68 1020.39 1019.45 1019.33 1017.49 1016.70 1015.52 1014.27 1013.98 1014.67 1015.36 1016.31 1017.38 1018.21
1028.14 1028.40 1028.70 1028.12 1028.07 1028.25 1028.37 1027.15 1026.27 1026.09 1026.13 1026.21 1026.07 1026.18 1026.10 1025.81 1025.48 1025.27 1025.46 1025.50 1025.46 1025.49 1025.33 1024.90 1024.38 1024.18 1023.92 1023.68 1023.38 1022.93 1022.42 1022.08 1021.73 1021.12 1020.75 1020.45 1020.11 1019.91 1018.65 1018.45 1016.96 1015.27 1015.56 1013.15 1014.18 1015.10 1016.11 1016.95 1018.12
1030.20 1030.60 1030.81 1029.57 1029.25 1029.29 1029.38 1027.82 1026.35 1026.18 1026.43 1026.29 1025.98 1025.83 1025.47 1025.27 1025.10 1025.00 1025.09 1025.26 1025.33 1025.32 1025.13 1024.70 1024.28 1023.88 1023.48 1023.14 1022.87 1022.63 1022.25 1022.00 1021.57 1021.07 1020.56 1020.23 1019.84 1019.60 1019.02 1017.99 1017.44 1016.24 1015.47 1012.91 1013.85 1014.95 1015.31 1016.68 1018.16
1032.17 1032.50 1031.92 1031.29 1029.96 1029.61 1029.36 1027.94 1026.93 1026.14 1026.19 1026.06 1025.54 1025.26 1025.36 1025.09 1024.89 1024.80 1024.75 1024.90 1024.94 1024.94 1024.78 1024.43 1023.97 1023.57 1023.11 1022.75 1022.39 1022.08 1021.73 1021.63 1021.32 1020.88 1020.39 1019.96 1019.54 1019.19 1018.77 1017.95 1016.96 1015.70 1015.66 1013.86 1013.61 1014.48 1015.31 1015.97 1017.59
1032.58 1033.05 1033.01 1031.46 1030.74 1030.33 1029.03 1028.23 1026.88 1026.07 1025.92 1025.73 1025.49 1025.28 1025.08 1024.80 1024.60 1024.87 1024.82 1024.71 1024.74 1024.59 1024.44 1024.08 1023.71 1023.05 1022.86 1022.55 1022.14 1021.72 1021.57 1021.15 1020.88 1020.57 1020.11 1019.74 1019.40 1018.80 1018.56 1017.69 1017.23 1016.18 1014.86 1014.72 1014.07 1013.90 1014.59 1016.18 1017.33
1032.47 1033.00 1032.96 1031.26 1031.04 1031.36 1029.60 1027.31 1026.31 1025.94 1025.55 1025.28 1025.20 1025.19 1024.99 1024.92 1024.82 1024.57 1024.65 1024.71 1024.59 1024.25 1023.79 1023.49 1023.12 1022.65 1022.44 1022.31 1021.90 1021.71 1021.34 1021.02 1020.45 1020.08 1019.76 1019.50 1019.22 1018.74 1018.32 1018.02 1017.78 1016.84 1015.76 1014.60 1014.07 1013.00 1014.01 1015.44 1016.35
1032.24 1032.72 1033.12 1033.51 1032.02 1031.66 1031.10 1027.96 1026.50 1025.54 1025.30 1025.01 1024.75 1024.74 1024.95 1024.78 1024.64 1024.80 1024.52 1024.30 1023.88 1023.57 1023.16 1022.70 1022.43 1022.20 1021.93 1021.70 1021.49 1021.29 1020.97 1020.60 1020.25 1019.75 1019.40 1019.24 1018.97 1018.57 1018.02 1017.66 1017.26 1017.28 1016.47 1015.20 1014.74 1012.78 1012.94 1014.62 1015.85
1032.33 1032.46 1033.17 1033.33 1033.70 1033.92 1032.92 1031.05 1027.58 1026.22 1025.42 1024.99 1024.68 1024.62 1024.62 1024.68 1024.45 1024.15 1023.99 1023.65 1023.23 1022.75 1022.37 1022.14 1021.88 1021.60 1021.17 1020.89 1020.98 1020.86 1020.53 1020.12 1019.54 1019.38 1019.04 1018.80 1018.66 1018.29 1017.69 1016.89 1016.43 1015.84 1014.90 1014.25 1014.63 1013.02 1012.67 1013.15 1014.78
1032.26 1032.59 1033.15 1033.85 1034.90 1035.61 1034.41 1033.80 1027.34 1026.73 1025.51 1024.51 1024.19 1024.24 1024.01 1024.04 1024.25 1023.97 1023.42 1023.04 1022.65 1022.30 1021.90 1021.52 1021.10 1020.66 1020.35 1020.20 1020.18 1020.06 1019.84 1019.40 1018.98 1018.90 1018.62 1018.36 1018.17 1017.94 1017.49 1016.99 1016.20 1015.86 1015.51 1014.81 1014.56 1013.98 1013.26 1012.34 1013.22
1032.50 1032.81 1033.35 1034.30 1035.14 1035.84 1035.16 1034.06 1028.13 1026.11 1024.58 1024.15 1023.65 1023.61 1023.62 1023.49 1023.25 1023.26 1022.99 1022.62 1022.13 1021.62 1021.21 1020.58 1020.19 1019.88 1019.62 1019.41 1019.17 1019.06 1018.85 1018.61 1018.55 1018.16 1017.98 1017.70 1017.62 1017.38 1017.09 1016.67 1016.53 1015.76 1015.62 1014.83 1014.87 1014.02 1013.42 1012.38 1012.84
1033.26 1033.99 1034.69 1035.19 1035.53 1035.37 1034.23 1033.68 1026.82 1024.46 1023.83 1023.66 1023.47 1023.21 1023.16 1022.97 1022.82 1022.75 1022.57 1022.06 1021.43 1020.90 1020.31 1019.80 1019.41 1018.97 1018.70 1018.38 1018.04 1017.81 1017.72 1017.61 1017.24 1017.32 1017.18 1017.05 1016.87 1016.73 1016.53 1016.20 1015.85 1015.62 1014.99 1014.97 1014.63 1013.51 1012.95 1012.44 1012.09
1035.96 1036.63 1037.56 1038.46 1038.32 1036.30 1034.18 1031.52 1024.67 1023.25 1022.88 1022.91 1023.05 1023.07 1023.00 1022.83 1022.59 1022.35 1021.88 1021.19 1020.54 1019.94 1019.48 1019.00 1018.47 1017.93 1017.60 1017.23 1016.79 1016.49 1016.39 1016.27 1016.15 1016.07 1016.11 1016.07 1015.92 1015.98 1015.84 1015.68 1015.41 1015.49 1015.09 1014.86 1014.25 1013.36 1013.03 1012.19 1012.04
1036.90 1037.81 1038.55 1039.17 1040.12 1039.03 1033.10 1029.27 1024.70 1022.81 1022.57 1022.88 1022.86 1023.03 1022.78 1022.47 1022.20 1021.73 1021.39 1020.69 1019.94 1019.29 1018.63 1018.14 1017.59 1016.96 1016.43 1015.97 1015.63 1015.28 1014.91 1014.75 1014.78 1014.88 1014.99 1015.05 1014.98 1015.07 1015.14 1015.00 1014.86 1014.54 1014.55 1014.40 1013.61 1013.17 1012.45 1011.69 1012.01
1037.81 1039.07 1039.50 1040.15 1040.80 1038.78 1033.50 1030.78 1026.38 1023.54 1022.82 1023.05 1023.15 1023.07 1022.61 1022.22 1021.69 1021.36 1020.82 1019.92 1019.17 1018.48 1017.77 1017.20 1016.39 1015.76 1015.34 1015.01 1014.69 1014.25 1013.91 1013.64 1013.59 1013.70 1013.71 1013.76 1014.02 1014.15 1014.27 1014.24 1014.18 1014.04 1013.54 1013.26 1013.45 1012.80 1012.01 1011.41 1011.62
1038.77 1039.68 1040.54 1040.85 1040.94 1040.27 1037.11 1028.90 1024.05 1023.42 1023.10 1023.55 1023.38 1023.24 1022.62 1022.03 1021.41 1020.72 1019.91 1019.22 1018.43 1017.69 1016.95 1016.15 1015.42 1014.85 1014.32 1014.05 1013.60 1013.25 1012.99 1012.78 1012.65 1012.53 1012.60 1012.73 1013.01 1013.08 1013.33 1013.47 1013.44 1013.49 1013.45 1013.11 1012.91 1012.29 1011.43 1010.87 1011.10
1038.47 1039.25 1039.77 1041.17 1041.54 1041.26 1039.13 1029.90 1022.98 1022.90 1022.82 1023.41 1023.34 1023.15 1022.28 1021.90 1020.92 1020.09 1019.16 1018.34 1017.56 1016.92 1016.03 1015.26 1014.60 1014.07 1013.58 1012.98 1012.52 1012.10 1011.88 1011.83 1011.59 1011.36 1011.35 1011.57 1011.71 1012.03 1012.24 1012.56 1012.58 1012.36 1012.18 1012.14 1011.79 1011.02 1010.79 1010.55 1010.38
Thickness
5735 5737 5736 5726 5702 5683 5675 5674 5668 5662 5662 5659 5658 5657 5642 5630 5628 5633 5614 5614 5616 5620 5626 5632 5642 5648 5654 5659 5661 5667 5673 5681 5687 5692 5699 5702 5706 5707 5709 5709 5710 5708 5707 5706 5706 5705 5705 5705 5704
5734 5736 5728 5704 5679 5671 5665 5663 5659 5654 5650 5646 5646 5637 5627 5612 5612 5609 5602 5600 5602 5606 5611 5620 5627 5635 5641 5646 5654 5656 5663 5670 5677 5683 5690 5695 5700 5703 5705 5705 5707 5707 5705 5703 5702 5701 5702 5701 5700
5731 5729 5709 5681 5656 5668 5661 5649 5637 5640 5637 5635 5630 5613 5604 5594 5595 5588 5585 5586 5588 5591 5594 5604 5612 5618 5626 5634 5638 5645 5652 5659 5666 5672 5680 5688 5694 5699 5701 5701 5702 5703 5702 5701 5699 5698 5698 5697 5696
5723 5714 5692 5678 5676 5651 5645 5634 5627 5628 5631 5621 5614 5598 5587 5575 5574 5569 5570 5572 5576 5578 5580 5587 5597 5602 5610 5618 5627 5634 5641 5647 5656 5664 5670 5679 5685 5691 5696 5697 5698 5699 5698 5698 5696 5694 5695 5694 5692
5710 5695 5675 5664 5656 5638 5630 5618 5615 5612 5610 5606 5598 5580 5569 5560 5554 5552 5556 5556 5558 5561 5565 5570 5579 5585 5592 5602 5612 5619 5625 5635 5644 5653 5660 5668 5676 5682 5689 5692 5693 5694 5694 5694 5693 5691 5690 5690 5689
5696 5682 5665 5659 5647 5630 5618 5599 5610 5600 5594 5588 5580 5566 5548 5544 5543 5538 5538 5539 5540 5542 5547 5554 5561 5569 5578 5586 5597 5606 5614 5619 5632 5640 5650 5657 5665 5673 5679 5686 5688 5690 5690 5690 5689 5687 5686 5684 5684
5682 5664 5652 5645 5634 5627 5606 5590 5594 5585 5578 5575 5563 5551 5535 5528 5523 5522 5521 5520 5522 5524 5529 5533 5543 5552 5561 5570 5579 5588 5597 5612 5619 5624 5636 5644 5655 5664 5668 5675 5683 5686 5687 5687 5685 5684 5682 5680 5678
5665 5655 5646 5620 5613 5615 5590 5590 5586 5576 5570 5557 5546 5529 5524 5516 5505 5500 5497 5497 5499 5502 5508 5515 5524 5533 5545 5554 5562 5572 5580 5590 5599 5612 5621 5633 5643 5652 5659 5666 5675 5681 5682 5682 5682 5681 5680 5676 5673
5663 5642 5623 5613 5612 5600 5587 5579 5577 5565 5556 5548 5531 5524 5510 5496 5484 5475 5469 5468 5469 5474 5482 5492 5502 5514 5524 5535 5544 5555 5565 5574 5586 5600 5610 5619 5631 5641 5647 5656 5663 5673 5676 5677 5678 5677 5675 5673 5669
5638 5620 5614 5605 5597 5587 5576 5570 5565 5553 5543 5535 5521 5504 5489 5474 5459 5452 5444 5438 5437 5441 5452 5462 5476 5490 5503 5515 5526 5537 5547 5557 5569 5580 5592 5604 5618 5627 5637 5647 5656 5666 5670 5668 5671 5672 5670 5666 5665
5625 5610 5605 5597 5592 5579 5568 5558 5552 5542 5529 5517 5506 5489 5469 5454 5446 5435 5430 5423 5420 5419 5425 5436 5448 5465 5480 5494 5505 5517 5529 5541 5552 5565 5578 5591 5604 5614 5627 5637 5645 5660 5664 5664 5661 5663 5662 5664 5662
5615 5602 5597 5587 5575 5566 5559 5551 5540 5529 5520 5507 5492 5475 5455 5445 5435 5427 5421 5417 5411 5408 5410 5419 5430 5444 5461 5475 5486 5498 5510 5523 5536 5548 5561 5576 5590 5592 5621 5627 5633 5653 5661 5662 5659 5660 5658 5658 5658
5605 5591 5588 5579 5565 5561 5552 5541 5528 5520 5510 5494 5481 5463 5447 5438 5430 5424 5418 5416 5410 5407 5408 5413 5420 5429 5441 5456 5467 5479 5492 5505 5519 5534 5546 5558 5573 5589 5592 5612 5629 5643 5657 5658 5658 5657 5654 5656 5654
5592 5588 5577 5572 5561 5551 5539 5531 5519 5518 5503 5488 5468 5450 5439 5433 5427 5424 5417 5416 5413 5409 5410 5414 5419 5424 5430 5440 5451 5463 5474 5488 5502 5518 5531 5542 5554 5570 5590 5601 5613 5635 5652 5653 5654 5655 5652 5651 5650
5587 5591 5574 5557 5546 5540 5529 5535 5514 5507 5493 5484 5463 5444 5436 5431 5430 5424 5421 5417 5412 5411 5412 5415 5419 5423 5427 5433 5439 5448 5459 5471 5486 5501 5516 5528 5538 5555 5566 5589 5602 5623 5640 5647 5648 5648 5645 5644 5642
5564 5559 5557 5553 5538 5528 5515 5516 5513 5500 5485 5472 5460 5443 5434 5430 5428 5425 5419 5416 5412 5410 5411 5414 5418 5423 5426 5429 5433 5438 5445 5456 5469 5485 5500 5514 5527 5535 5560 5574 5589 5611 5620 5643 5643 5643 5642 5641 5638
5540 5521 5528 5529 5522 5516 5505 5499 5500 5492 5475 5461 5456 5441 5436 5430 5427 5424 5419 5415 5411 5408 5408 5411 5415 5419 5424 5428 5430 5433 5436 5441 5453 5469 5486 5501 5516 5525 5542 5567 5579 5593 5608 5637 5637 5635 5641 5637 5632
5537 5504 5507 5502 5520 5507 5492 5488 5491 5490 5474 5456 5448 5439 5431 5428 5426 5423 5418 5414 5410 5406 5405 5407 5411 5414 5418 5422 5424 5426 5429 5431 5439 5453 5469 5487 5502 5515 5530 5551 5570 5589 5596 5620 5631 5630 5633 5636 5630
5521 5488 5482 5495 5509 5494 5498 5484 5490 5487 5470 5461 5449 5438 5428 5425 5425 5417 5414 5411 5406 5403 5401 5403 5404 5408 5408 5411 5415 5418 5419 5422 5427 5439 5454 5469 5485 5503 5518 5539 5557 5575 5592 5602 5616 5626 5628 5622 5622
5511 5485 5481 5507 5505 5489 5486 5494 5488 5483 5475 5468 5457 5442 5429 5425 5417 5414 5408 5402 5398 5399 5400 5399 5399 5401 5400 5399 5405 5407 5411 5413 5416 5426 5439 5454 5470 5486 5505 5523 5540 5558 5574 5595 5608 5625 5623 5620 5622
5520 5496 5476 5474 5491 5483 5464 5499 5498 5488 5472 5465 5458 5445 5430 5421 5414 5406 5403 5400 5397 5397 5397 5397 5395 5395 5395 5395 5396 5399 5403 5406 5408 5412 5425 5438 5456 5471 5493 5512 5531 5543 5561 5580 5592 5619 5625 5618 5616
5502 5508 5492 5481 5452 5452 5443 5462 5476 5474 5462 5459 5450 5439 5428 5421 5415 5408 5402 5398 5397 5397 5394 5390 5389 5388 5390 5389 5389 5389 5394 5398 5402 5404 5412 5424 5440 5458 5480 5504 5525 5543 5561 5575 5581 5604 5619 5623 5616
5521 5494 5479 5470 5412 5401 5429 5388 5469 5461 5468 5465 5454 5439 5430 5421 5412 5405 5400 5397 5395 5391 5387 5386 5385 5386 5386 5383 5380 5382 5384 5390 5394 5397 5403 5412 5426 5445 5464 5488 5510 5526 5544 5560 5570 5584 5604 5621 5625
5500 5484 5477 5447 5421 5427 5389 5400 5472 5473 5468 5466 5456 5443 5434 5424 5416 5405 5396 5392 5385 5383 5383 5381 5380 5380 5379 5377 5376 5375 5376 5381 5384 5388 5394 5403 5413 5432 5450 5473 5491 5511 5529 5544 5555 5575 5594 5612 5620
5473 5459 5471 5488 5457 5483 5393 5390 5475 5480 5463 5456 5449 5439 5428 5417 5411 5401 5392 5387 5381 5376 5376 5375 5374 5373 5370 5371 5371 5370 5369 5371 5377 5380 5384 5392 5403 5418 5437 5459 5480 5500 5519 5533 5545 5569 5587 5604 5617
5446 5416 5440 5471 5458 5446 5415 5409 5506 5471 5463 5447 5438 5428 5423 5413 5403 5393 5387 5383 5376 5371 5368 5367 5365 5363 5358 5355 5355 5357 5359 5361 5366 5372 5376 5382 5393 5406 5422 5445 5468 5484 5501 5517 5535 5559 5574 5595 5609
5455 5430 5411 5362 5327 5336 5426 5442 5473 5476 5458 5442 5430 5426 5416 5406 5397 5391 5381 5374 5368 5363 5361 5358 5354 5349 5343 5340 5339 5340 5340 5344 5353 5357 5365 5371 5380 5395 5411 5431 5454 5473 5490 5507 5529 5547 5568 5588 5598
5431 5411 5418 5364 5418 5437 5440 5398 5461 5477 5475 5456 5436 5417 5409 5400 5394 5385 5376 5369 5363 5356 5353 5348 5341 5333 5325 5316 5311 5311 5314 5321 5328 5339 5349 5361 5368 5380 5398 5417 5441 5460 5482 5502 5517 5538 5559 5579 5589
5417 5385 5372 5369 5346 5363 5360 5464 5451 5453 5448 5426 5415 5402 5394 5390 5387 5381 5374 5364 5355 5347 5342 5336 5326 5314 5303 5291 5281 5281 5288 5296 5306 5318 5332 5348 5356 5368 5384 5406 5428 5449 5468 5489 5510 5530 5551 5571 5583
5402 5400 5384 5404 5370 5286 5278 5400 5460 5445 5428 5382 5393 5388 5389 5382 5380 5376 5367 5358 5347 5338 5332 5323 5309 5294 5278 5266 5260 5263 5270 5277 5287 5299 5315 5331 5346 5357 5373 5394 5417 5443 5465 5485 5506 5527 5547 5564 5579